sat.trackr.live / text

‹ back to catalog

STARLINK-34696

NORAD 64808 · 2025-150U

PAYLOAD ACTIVE UNKNOWN

§ Identity

Operator
Country
US
Launch date
2025-07-16
Launch site
AFWTR
Launch vehicle
Mass (kg)
RCS (m²)

Purposes: comms

External: N2YO · Heavens-Above · Gunter

§ Orbital elements

Epoch: 2026-09-20T13:13:33.273120Z

Period
96.11 min
Inclination
70.0026°
Eccentricity
0.0003849
Mean motion
14.98336153 rev/d
Perigee alt
569.4 km
Apogee alt
574.7 km
Semi-major
6,950.2 km
B*
2.3353e-4
RAAN
3.1996°
Arg perigee
266.7769°
Mean anomaly
93.2950°
Rev number
6,570

§ Raw data

STARLINK-346961 64808U 25150U   26263.55107955  .00002695  00000+0  23353-3 0  99952 64808  70.0026   3.1996 0003849 266.7769  93.2950 14.98336153 65707

JSON: /api/v1/satellites/64808 · /tle

For live sub-satellite position, see the globe view (requires WebGL).

§ Visibility from observer

Set your observer location to see the next 7 days of passes ≥ 10°. The values pass through the URL so the page stays shareable.

No JS? Fill the form by hand. The geolocation button needs JavaScript.